IRIDIUM 33 DEB, 33850

Orbit data source: Space-Track

IRIDIUM 33 DEB, 33850 is space debris in LEO originally from a launch on Sun, 14 Sep 1997 UTC launched from the Tyuratam Missile And Space Complex (TTMTR). The debris from Iridium 33, an American commercial communications satellite, has been tracked extensively since its accidental collision with the defunct Russian satellite Cosmos 2251 in 2009. This event, occurring at high speed in low Earth orbit (LEO), generated thousands of pieces of space debris, significantly increasing the risk of further collisions. The Iridium 33 debris cloud has impacted space traffic management and orbital debris mitigation strategies, making it a subject of ongoing study in space situational awareness.

Loading next visibility...
Identifier
33850, 1997-051T
Orbit
LEO
Country
Flag of USUS
Related business
Manufacturer
Unknown
Mission
Spacecraft
Bus & Motor
Unknown
Mass
Unknown
Launch date (UTC)
1997-09-14 (29 years ago)
Launch vehicle
Unknown
Launch site
Tyuratam Missile And Space Complex (TTMTR)
Object type
Payload
Rocket body
Debris
Shape & HBR
Unknown shape, 0.5 m
Radar Cross Section
Medium (>0.1 m² and <1 m²)

Expand to show TLE details & history
Last TLE update: 12 hours ago

TLE from 12 hours ago
0 IRIDIUM 33 DEB
1 33850U 97051T   26120.12538097  .00000928  00000-0  27325-3 0  9998
2 33850  86.3409 330.6813 0013468  75.7816  45.0665 14.42587544901472
Epoch: 2026-04-30T03:00Z
TLE epoch observation values (Epoch: 2026-04-30T03:00:32.915Z)
Latitude
58.9445°
Longitude
-118.59583°
Altitude
753.255 km
Speed
7.487 km/s
True Right ascension
09h 38m 28s
True Declination
58° 47' 32"
Sunlit
Object was in daylight at epoch
Visualization orbit readout
Latitude
Unknown
Longitude
Unknown
Altitude
Unknown
Speed
Unknown
Apparent Right ascension
Unknown
Apparent Declination
Unknown
Sunlit
N/A
Visualization observer readout
Local Sidereal Time
22:57:05
Azimuth
Unknown
Elevation
Unknown
Doppler factor
Unknown
Orbital elements
Apogee altitude
756.512 km
Perigee altitude
737.32 km
Semi-major axis
7,125.053 km
Eccentricity
0.00135
Inclination
86.3409°
RAAN
330.6813°
Arg. of periapsis
75.7816°
True anomaly
45.17589°
Mean anomaly
45.0665°
Eccentric anomaly
45.12118°
Mean motion
3.60879 °/min
Orbital period
99.76 mins
BSTAR
0.00027325
Loading maneuver chart data...
Computing Atmospheric mass density...

Documentation

Showing up to 5 results
|